Eastover, SC

3:27 AM EDT on July 24, 2017 (GMT -0400)
McEntire Angs

Weather History for KMMT - October, 2012

Change the Weather History Date:

Thursday, October 25, 2012

  Actual Average Record
Temperature  
Mean Temperature 67 °F -  
Max Temperature 83 °F 71 °F 83 °F (2012)
Min Temperature 51 °F 50 °F 33 °F (2006)
Cooling Degree Days 2    
Growing Degree Days 17 (Base 50)    
Moisture  
Dew Point 56 °F    
Average Humidity 91    
Maximum Humidity 100    
Minimum Humidity 44    
Precipitation  
Precipitation 0.00 in - - ()
Sea Level Pressure  
Sea Level Pressure 30.10 in    
Wind  
Wind Speed 1 mph (East)    
Max Wind Speed 12 mph    
Max Gust Speed 17 mph    
Visibility 4 miles    
Events Fog    
Averages and records for this station are not official NWS values.
T = Trace of Precipitation, MM = Missing Value Source: NWS Daily Summary

Daily Weather History Graph

Daily Weather History Graph

Search for Another Location

Airport or City:

Trip Planner

Search our weather history database for the weather conditions in past years. The results will help you decide how hot, cold, wet, or windy it might be!

Date:

Astronomy

Oct. 25, 2012 Rise Set
Actual Time 7:36 AM EDT 6:37 PM EDT
Civil Twilight 7:11 AM EDT 7:02 PM EDT
Nautical Twilight 6:42 AM EDT 7:31 PM EDT
Astronomical Twilight 6:13 AM EDT 8:00 PM EDT
Moon 4:14 PM EDT (10/25) 3:42 AM EDT (10/25)
Length of Visible Light 11h 51m
Length of Day
11h 00m
Waxing Gibbous, 84% of the Moon is Illuminated
Oct 25
Waxing Gibbous
Oct 29
Full
Nov 6
Last Quarter
Nov 13
New
Nov 20
First Quarter

Hourly Weather History & Observations

Time (EDT) Temp. Heat Index Dew Point Humidity Pressure Visibility Wind Dir Wind Speed Gust Speed Precip Events Conditions
12:55 AM 59.9 °F - 58.6 °F 96% 30.12 in 10.0 mi East 3.5 mph - N/A   Clear
1:21 AM 57.2 °F - 55.4 °F 94% 30.12 in 2.0 mi Calm Calm - N/A   Clear
1:22 AM 57.2 °F - 57.2 °F 100% 30.12 in 1.5 mi Calm Calm - N/A   Clear
1:30 AM 57.2 °F - 57.2 °F 100% 30.12 in 2.0 mi Calm Calm - N/A   Clear
1:31 AM 57.2 °F - 57.2 °F 100% 30.12 in 3.0 mi Calm Calm - N/A   Clear
1:38 AM 57.2 °F - 55.4 °F 94% 30.12 in 2.5 mi Calm Calm - N/A   Clear
1:47 AM 55.4 °F - 55.4 °F 100% 30.12 in 3.0 mi Calm Calm - N/A   Clear
1:55 AM 55.4 °F - 55.0 °F 99% 30.12 in 10.0 mi Calm Calm - N/A   Clear
2:44 AM 55.4 °F - 55.4 °F 100% 30.11 in 2.5 mi Calm Calm - N/A   Clear
2:47 AM 55.4 °F - 55.4 °F 100% 30.11 in 2.0 mi Calm Calm - N/A   Clear
2:49 AM 55.4 °F - 55.4 °F 100% 30.11 in 2.5 mi Calm Calm - N/A   Clear
2:52 AM 55.4 °F - 55.4 °F 100% 30.11 in 1.5 mi Calm Calm - N/A   Clear
2:53 AM 55.4 °F - 55.4 °F 100% 30.11 in 1.2 mi Calm Calm - N/A   Clear
2:55 AM 55.2 °F - 54.9 °F 99% 30.11 in 1.2 mi Calm Calm - N/A   Clear
2:57 AM 55.4 °F - 53.6 °F 94% 30.11 in 1.0 mi Calm Calm - N/A   Clear
3:00 AM 53.6 °F - 53.6 °F 100% 30.11 in 1.2 mi Calm Calm - N/A   Clear
3:02 AM 53.6 °F - 53.6 °F 100% 30.11 in 1.8 mi Calm Calm - N/A   Clear
3:03 AM 53.6 °F - 53.6 °F 100% 30.11 in 2.5 mi Calm Calm - N/A   Clear
3:04 AM 53.6 °F - 53.6 °F 100% 30.11 in 3.0 mi Calm Calm - N/A   Clear
3:10 AM 53.6 °F - 53.6 °F 100% 30.11 in 2.0 mi Calm Calm - N/A   Clear
3:11 AM 53.6 °F - 53.6 °F 100% 30.11 in 1.5 mi Calm Calm - N/A   Clear
3:12 AM 53.6 °F - 53.6 °F 100% 30.10 in 1.0 mi Calm Calm - N/A   Clear
3:15 AM 53.6 °F - 53.6 °F 100% 30.10 in 0.8 mi Calm Calm - N/A   Clear
3:16 AM 53.6 °F - 53.6 °F 100% 30.11 in 0.8 mi Calm Calm - N/A   Clear
3:19 AM 53.6 °F - 53.6 °F 100% 30.10 in 0.8 mi Calm Calm - N/A   Clear
3:20 AM 53.6 °F - 53.6 °F 100% 30.10 in 1.0 mi Calm Calm - N/A   Clear
3:21 AM 53.6 °F - 53.6 °F 100% 30.10 in 1.2 mi Calm Calm - N/A   Clear
3:22 AM 53.6 °F - 53.6 °F 100% 30.10 in 1.5 mi Calm Calm - N/A   Clear
3:23 AM 53.6 °F - 53.6 °F 100% 30.10 in 2.0 mi Calm Calm - N/A   Clear
3:25 AM 53.6 °F - 53.6 °F 100% 30.10 in 3.0 mi Calm Calm - N/A   Clear
3:52 AM 53.6 °F - 53.6 °F 100% 30.10 in 2.5 mi Calm Calm - N/A   Clear
3:53 AM 53.6 °F - 53.6 °F 100% 30.10 in 1.8 mi Calm Calm - N/A   Clear
3:54 AM 53.6 °F - 53.6 °F 100% 30.10 in 1.5 mi Calm Calm - N/A   Clear
3:55 AM 53.6 °F - 53.4 °F 99% 30.10 in 1.2 mi Calm Calm - N/A   Clear
3:58 AM 53.6 °F - 53.6 °F 100% 30.10 in 1.0 mi Calm Calm - N/A   Clear
3:59 AM 53.6 °F - 53.6 °F 100% 30.10 in 1.0 mi Calm Calm - N/A   Clear
4:01 AM 53.6 °F - 53.6 °F 100% 30.10 in 1.2 mi Calm Calm - N/A   Clear
4:03 AM 53.6 °F - 53.6 °F 100% 30.10 in 1.5 mi Calm Calm - N/A   Clear
4:04 AM 53.6 °F - 53.6 °F 100% 30.09 in 2.0 mi Calm Calm - N/A   Clear
4:08 AM 53.6 °F - 53.6 °F 100% 30.09 in 1.8 mi Calm Calm - N/A   Clear
4:09 AM 53.6 °F - 53.6 °F 100% 30.09 in 1.5 mi Calm Calm - N/A   Clear
4:10 AM 53.6 °F - 53.6 °F 100% 30.09 in 1.2 mi Calm Calm - N/A   Clear
4:17 AM 51.8 °F - 51.8 °F 100% 30.09 in 1.5 mi Calm Calm - N/A   Clear
4:18 AM 51.8 °F - 51.8 °F 100% 30.09 in 1.8 mi Calm Calm - N/A   Clear
4:19 AM 51.8 °F - 51.8 °F 100% 30.09 in 2.5 mi Calm Calm - N/A   Clear
4:20 AM 51.8 °F - 51.8 °F 100% 30.09 in 4.0 mi Calm Calm - N/A   Clear
4:55 AM 54.0 °F - 53.6 °F 99% 30.09 in 9.0 mi Calm Calm - N/A   Clear
5:55 AM 53.2 °F - 53.1 °F 99% 30.10 in 10.0 mi Variable 3.5 mph - N/A   Clear
6:55 AM 54.7 °F - 54.3 °F 99% 30.11 in 10.0 mi Calm Calm - N/A Fog Patches of Fog
7:55 AM 53.8 °F - 53.2 °F 98% 30.12 in 10.0 mi Calm Calm - N/A Fog Patches of Fog
8:55 AM 63.0 °F - 58.6 °F 86% 30.13 in 10.0 mi NE 5.8 mph - N/A   Partly Cloudy
9:55 AM 69.1 °F - 60.6 °F 74% 30.13 in 10.0 mi Variable 4.6 mph - N/A   Partly Cloudy
10:55 AM 74.7 °F - 62.6 °F 66% 30.13 in 10.0 mi East 9.2 mph - N/A   Scattered Clouds
11:55 AM 78.4 °F - 61.0 °F 55% 30.13 in 10.0 mi Variable 4.6 mph - N/A   Scattered Clouds
12:55 PM 81.3 °F 81.6 °F 59.0 °F 46% 30.11 in 10.0 mi ENE 11.5 mph 16.1 mph N/A   Scattered Clouds
1:55 PM 83.1 °F 83.0 °F 59.2 °F 44% 30.08 in 10.0 mi ENE 10.4 mph - N/A   Mostly Cloudy
2:55 PM 83.1 °F 83.0 °F 58.8 °F 44% 30.07 in 10.0 mi ESE 10.4 mph 17.3 mph N/A   Mostly Cloudy
3:55 PM 81.0 °F 81.3 °F 59.2 °F 47% 30.06 in 10.0 mi East 6.9 mph - N/A   Scattered Clouds
4:55 PM 80.4 °F 81.2 °F 60.4 °F 50% 30.05 in 10.0 mi East 6.9 mph - N/A   Scattered Clouds
5:55 PM 78.3 °F - 61.5 °F 56% 30.06 in 10.0 mi East 4.6 mph - N/A   Scattered Clouds
6:55 PM 73.8 °F - 61.9 °F 66% 30.07 in 10.0 mi East 4.6 mph - N/A   Scattered Clouds
7:55 PM 70.0 °F - 61.3 °F 74% 30.09 in 10.0 mi East 5.8 mph - N/A   Scattered Clouds
8:55 PM 68.2 °F - 61.2 °F 78% 30.09 in 10.0 mi East 5.8 mph - N/A   Mostly Cloudy
9:55 PM 68.0 °F - 61.3 °F 79% 30.08 in 10.0 mi East 3.5 mph - N/A   Mostly Cloudy
10:55 PM 64.9 °F - 61.0 °F 87% 30.07 in 10.0 mi East 4.6 mph - N/A   Mostly Cloudy
11:55 PM 65.1 °F - 61.7 °F 89% 30.06 in 10.0 mi East 3.5 mph - N/A   Clear